EN

Hourly Weather Ptakowice

Today, 30 September, Wednesday

Time Temperature Precipitation Wind Pressure Humidity
00:00 +11°C° 0.5 mm 4 mps 734 mmHg 94%
01:00 +11°C° 0.5 mm 4 mps 734 mmHg 94%
02:00 +11°C° 0.2 mm 4 mps 734 mmHg 93%
03:00 +11°C° 0.2 mm 4 mps 733 mmHg 93%
04:00 +11°C° 0.2 mm 4 mps 733 mmHg 93%
05:00 +11°C° 0 mm 4 mps 733 mmHg 92%
06:00 +11°C° 0 mm 4 mps 733 mmHg 92%
07:00 +11°C° 0 mm 4 mps 733 mmHg 92%
08:00 +12°C° 0 mm 4 mps 733 mmHg 88%
09:00 +12°C° 0 mm 4 mps 733 mmHg 85%
10:00 +13°C° 0 mm 5 mps 733 mmHg 81%
11:00 +13°C° 0.1 mm 5 mps 733 mmHg 82%
12:00 +13°C° 0.1 mm 5 mps 733 mmHg 82%
13:00 +13°C° 0.1 mm 5 mps 732 mmHg 82%
14:00 +13°C° 0.1 mm 4 mps 732 mmHg 82%
15:00 +13°C° 0.1 mm 4 mps 732 mmHg 81%
16:00 +13°C° 0.1 mm 4 mps 732 mmHg 81%
17:00 +13°C° 0.1 mm 4 mps 732 mmHg 82%
18:00 +13°C° 0.1 mm 4 mps 732 mmHg 84%
19:00 +13°C° 0.1 mm 4 mps 732 mmHg 85%
20:00 +13°C° 0.6 mm 4 mps 731 mmHg 86%
21:00 +13°C° 0.6 mm 4 mps 731 mmHg 88%
22:00 +13°C° 0.6 mm 4 mps 731 mmHg 89%
23:00 +13°C° 0.6 mm 3 mps 731 mmHg 90%

Tomorrow, 1 October, Thursday

Time Temperature Precipitation Wind Pressure Humidity
00:00 +12°C° 0.6 mm 3 mps 730 mmHg 92%
01:00 +12°C° 0.6 mm 3 mps 730 mmHg 93%
02:00 +12°C° 0.4 mm 3 mps 730 mmHg 93%
03:00 +12°C° 0.4 mm 3 mps 729 mmHg 94%
04:00 +12°C° 0.4 mm 4 mps 729 mmHg 94%
05:00 +12°C° 0.7 mm 4 mps 729 mmHg 94%
06:00 +12°C° 0.7 mm 4 mps 729 mmHg 93%
07:00 +12°C° 0.7 mm 4 mps 728 mmHg 93%
08:00 +11°C° 0.2 mm 3 mps 728 mmHg 92%
09:00 +11°C° 0.2 mm 3 mps 728 mmHg 91%
10:00 +11°C° 0.2 mm 3 mps 728 mmHg 90%
11:00 +11°C° 0.2 mm 3 mps 728 mmHg 90%
12:00 +12°C° 0.2 mm 2 mps 728 mmHg 90%
13:00 +12°C° 0.2 mm 2 mps 728 mmHg 90%
14:00 +12°C° 0.3 mm 2 mps 727 mmHg 90%
15:00 +12°C° 0.3 mm 2 mps 727 mmHg 91%
16:00 +12°C° 0.3 mm 2 mps 727 mmHg 91%
17:00 +12°C° 0.2 mm 2 mps 728 mmHg 92%
18:00 +12°C° 0.2 mm 1 mps 728 mmHg 92%
19:00 +11°C° 0.2 mm 1 mps 728 mmHg 93%
20:00 +12°C° 0.1 mm 1 mps 728 mmHg 93%
21:00 +12°C° 0.1 mm 1 mps 728 mmHg 94%
22:00 +12°C° 0.1 mm 1 mps 728 mmHg 94%
23:00 +12°C° 0.1 mm 1 mps 728 mmHg 94%

Day after tomorrow, 2 October, Friday

Time Temperature Precipitation Wind Pressure Humidity
00:00 +11°C° 0.1 mm 0 mps 728 mmHg 94%
01:00 +11°C° 0.1 mm 0 mps 728 mmHg 94%
02:00 +11°C° 0 mm 0 mps 728 mmHg 94%
03:00 +11°C° 0 mm 0 mps 728 mmHg 94%
04:00 +11°C° 0 mm 0 mps 728 mmHg 93%
05:00 +12°C° 0 mm 1 mps 728 mmHg 93%
06:00 +12°C° 0 mm 1 mps 728 mmHg 92%
07:00 +12°C° 0 mm 1 mps 729 mmHg 91%
08:00 +13°C° 0 mm 2 mps 729 mmHg 86%
09:00 +14°C° 0 mm 2 mps 729 mmHg 81%
10:00 +15°C° 0 mm 2 mps 729 mmHg 76%
11:00 +16°C° 0 mm 2 mps 729 mmHg 71%
12:00 +17°C° 0 mm 2 mps 729 mmHg 66%
13:00 +18°C° 0 mm 2 mps 729 mmHg 61%
14:00 +18°C° 0 mm 2 mps 729 mmHg 63%
15:00 +17°C° 0 mm 2 mps 729 mmHg 64%
16:00 +17°C° 0 mm 3 mps 729 mmHg 65%
17:00 +16°C° 0 mm 3 mps 729 mmHg 70%
18:00 +14°C° 0 mm 3 mps 729 mmHg 75%
19:00 +13°C° 0 mm 3 mps 729 mmHg 80%
20:00 +14°C° 0 mm 4 mps 729 mmHg 79%
21:00 +14°C° 0 mm 4 mps 728 mmHg 77%
22:00 +14°C° 0 mm 5 mps 728 mmHg 76%
23:00 +14°C° 0 mm 5 mps 728 mmHg 75%

3 October, Saturday

Time Temperature Precipitation Wind Pressure Humidity
00:00 +14°C° 0 mm 5 mps 728 mmHg 74%
01:00 +14°C° 0 mm 5 mps 727 mmHg 72%
02:00 +14°C° 0 mm 5 mps 727 mmHg 73%
03:00 +14°C° 0 mm 5 mps 727 mmHg 74%
04:00 +14°C° 0 mm 5 mps 726 mmHg 74%
05:00 +14°C° 0 mm 5 mps 726 mmHg 73%
06:00 +14°C° 0 mm 5 mps 726 mmHg 72%
07:00 +15°C° 0 mm 5 mps 726 mmHg 71%
08:00 +17°C° 0 mm 5 mps 726 mmHg 65%
09:00 +19°C° 0 mm 5 mps 726 mmHg 59%
10:00 +21°C° 0 mm 6 mps 726 mmHg 53%
11:00 +23°C° 0 mm 6 mps 726 mmHg 49%
12:00 +24°C° 0 mm 6 mps 726 mmHg 46%
13:00 +26°C° 0 mm 6 mps 726 mmHg 43%
14:00 +25°C° 0 mm 5 mps 725 mmHg 46%
15:00 +25°C° 0 mm 5 mps 725 mmHg 50%
16:00 +23°C° 0 mm 4 mps 725 mmHg 54%
17:00 +22°C° 0 mm 4 mps 725 mmHg 57%
18:00 +21°C° 0 mm 4 mps 725 mmHg 60%
19:00 +19°C° 0 mm 4 mps 725 mmHg 63%
20:00 +19°C° 0 mm 4 mps 725 mmHg 64%
21:00 +19°C° 0 mm 5 mps 724 mmHg 64%
22:00 +19°C° 0 mm 5 mps 724 mmHg 64%
23:00 +19°C° 0 mm 5 mps 723 mmHg 63%

4 October, Sunday

Time Temperature Precipitation Wind Pressure Humidity
00:00 +19°C° 0 mm 5 mps 723 mmHg 61%
01:00 +20°C° 0 mm 5 mps 723 mmHg 60%
02:00 +20°C° 0 mm 5 mps 723 mmHg 60%
03:00 +20°C° 0 mm 6 mps 723 mmHg 60%
04:00 +19°C° 0 mm 6 mps 723 mmHg 60%
05:00 +19°C° 0 mm 6 mps 723 mmHg 63%
06:00 +17°C° 0 mm 5 mps 724 mmHg 65%
07:00 +17°C° 0 mm 5 mps 724 mmHg 68%
08:00 +17°C° 0 mm 5 mps 725 mmHg 63%
09:00 +19°C° 0 mm 5 mps 726 mmHg 57%
10:00 +19°C° 0 mm 6 mps 726 mmHg 51%
11:00 +20°C° 0 mm 5 mps 727 mmHg 49%
12:00 +21°C° 0 mm 5 mps 727 mmHg 46%
13:00 +21°C° 0 mm 5 mps 728 mmHg 44%
14:00 +21°C° 0 mm 4 mps 728 mmHg 47%
15:00 +20°C° 0 mm 4 mps 728 mmHg 49%
16:00 +20°C° 0 mm 3 mps 728 mmHg 51%
17:00 +19°C° 0 mm 3 mps 728 mmHg 54%
18:00 +18°C° 0 mm 2 mps 728 mmHg 57%
19:00 +17°C° 0 mm 2 mps 728 mmHg 60%
20:00 +16°C° 0 mm 2 mps 728 mmHg 62%
21:00 +16°C° 0 mm 3 mps 728 mmHg 64%
22:00 +14°C° 0 mm 3 mps 728 mmHg 66%
23:00 +14°C° 0 mm 3 mps 728 mmHg 67%

5 October, Monday

Time Temperature Precipitation Wind Pressure Humidity
00:00 +13°C° 0 mm 3 mps 728 mmHg 68%
01:00 +13°C° 0 mm 3 mps 728 mmHg 69%
02:00 +13°C° 0 mm 3 mps 727 mmHg 68%
03:00 +13°C° 0 mm 3 mps 727 mmHg 67%
04:00 +13°C° 0 mm 3 mps 727 mmHg 66%
05:00 +14°C° 0 mm 3 mps 726 mmHg 65%
06:00 +14°C° 0 mm 3 mps 726 mmHg 65%
07:00 +14°C° 0 mm 3 mps 726 mmHg 64%
08:00 +17°C° 0 mm 4 mps 726 mmHg 58%
09:00 +17°C° 0 mm 5 mps 726 mmHg 52%
10:00 +20°C° 0 mm 6 mps 726 mmHg 46%
11:00 +21°C° 0 mm 7 mps 726 mmHg 45%
12:00 +21°C° 0 mm 7 mps 726 mmHg 44%
13:00 +22°C° 0 mm 8 mps 726 mmHg 44%
14:00 +21°C° 0 mm 6 mps 726 mmHg 47%
15:00 +20°C° 0 mm 5 mps 726 mmHg 51%
16:00 +19°C° 0 mm 4 mps 726 mmHg 54%
17:00 +18°C° 0.3 mm 4 mps 726 mmHg 60%
18:00 +17°C° 0.3 mm 3 mps 726 mmHg 65%
19:00 +16°C° 0.3 mm 3 mps 726 mmHg 70%
20:00 +16°C° 0.3 mm 2 mps 726 mmHg 73%
21:00 +15°C° 0.3 mm 2 mps 727 mmHg 76%
22:00 +15°C° 0.3 mm 1 mps 727 mmHg 79%
23:00 +14°C° 0.1 mm 1 mps 726 mmHg 80%
Show more

We Need Your Consent

Meteoprog and our Service Providers may store and access personal data such as cookies, device identifiers or other similar technologies on your device and process such data to personalise content and ads, as well as provide social media features and to analyse the traffic.

  • Store and/or access information on your device

    Cookies, device identifiers or other information can be stored or accessed on your device for the purposes indicated above.

  • Personalised ads and content, ad and content measurement, audience insights, and products development

    Ads and content can be personalised based on a profile. More data can be added to better personalise ads and content. Ad and content performance can be measured. Insights about the audience who saw the ads and content can be derived. Such data can be used to develop or improve user’s experience, systems and software.

By clicking ‘I Agree’ you will allow the use of indicated cookies, device identifiers, web beacons or other similar technologies. Your settings can be changed in the browser on your device.

For certain purposes, legitimate interests may be relied on, rather than consent. You can read more about this in our Privacy and Cookie Policy.